Regional Weather Roundup
Issued by NWS Cleveland, OH

Home | Current Version | Previous Version | Graphics & Text | Print | Product List | Glossary On
Versions: 1 2 3 4 5 6 7 8 9 10 11 12 13 14 15 16 17 18 19 20 21 22 23 24 25 26 27 28 29 30 31 32 33 34 35 36 37 38 39 40 41 42 43 44 45 46 47 48 49 50
000
ASUS41 KCLE 010010
RWRCLE
OHIO REGIONAL WEATHER ROUNDUP
NATIONAL WEATHER SERVICE CLEVELAND, OH
800 PM EDT SAT APR 30 2016

NOTE: "FAIR" INDICATES FEW OR NO CLOUDS BELOW 12,000 FEET WITH NO
SIGNIFICANT WEATHER AND/OR OBSTRUCTIONS TO VISIBILITY.

OHZ001>008-015>018-024>027-034-035-043-044-010100-
   NORTHWEST OHIO

CITY           SKY/WX    TMP DP  RH WIND       PRES   REMARKS
DEFIANCE       LGT RAIN  49  46  90 E9G23     29.95S FOG
FINDLAY        LGT RAIN  51  46  83 E16       29.93F
TOLEDO EXPRESS LGT RAIN  47  46  97 E14       29.97F FOG
TOLEDO EXEC    CLOUDY    48  45  89 E10       30.01F FOG
LIMA           LGT RAIN  51  50  96 E15       29.92F
$$

OHZ009>014-019>023-028>033-038-089-010100-
   NORTHEAST OHIO

CITY           SKY/WX    TMP DP  RH WIND       PRES   REMARKS
CLE-HOPKINS    RAIN      51  49  92 CALM      30.05S FOG
CLE-LAKEFRONT  LGT RAIN  50  48  93 NE12      30.03R FOG
CUY CO. ARPT   LGT RAIN  52  50  93 NE7       30.04R FOG
LORAIN-ELYRIA  LGT RAIN  48  46  93 NE5       30.03S FOG
ASHTABULA      LGT RAIN  51  48  89 NE5       30.04F
AKRON-CANTON   LGT RAIN  55  51  86 E8        29.99F FOG
WOOSTER        LGT RAIN  53  51  93 E6        30.01S FOG
MANSFIELD      LGT RAIN  51  51 100 NE5       29.99R FOG
YOUNGSTOWN     LGT RAIN  55  52  89 E8        30.01F FOG
$$

OHZ042-051>053-060>062-070>072-077>081-010100-
  SOUTHWEST OHIO

CITY           SKY/WX    TMP DP  RH WIND       PRES   REMARKS
CINC-COVINGTON LGT RAIN  60  59  96 SE6       29.92S
CINC-LUNKEN    CLOUDY    60  59  96 CALM      29.94S
HAMILTON       LGT RAIN  60  58  92 VRB3      29.94S FOG
DAYTON         LGT RAIN  55  55 100 SE12      29.93F FOG
WRIGHT-PAT AFB LGT RAIN  55  55 100 SE6       29.94S FOG
DAYTON GENERAL LGT RAIN  57  54  89 SE9       29.93F FOG
WILMINGTON     LGT RAIN  56  55  97 S6        29.94R FOG
$$

OHZ036-037-039>041-045>050-054>059-063>069-073>076-082>088-010100-
  CENTRAL AND SOUTHEAST OHIO

CITY           SKY/WX    TMP DP  RH WIND       PRES   REMARKS
COLUMBUS       LGT RAIN  55  55 100 CALM      29.97R
OSU AIRPORT    LGT RAIN  55  54  96 CALM      29.96F FOG
BOLTON FIELD   CLOUDY    56  55  96 SE3       29.96S
RICKENBACK AFB CLOUDY    56  54  92 SE9       29.94F
NEWARK         CLOUDY    58  54  86 SE7       29.95F
MARION         HVY RAIN  52  51  97 E7        29.98S VSB 3/4
LANCASTER      CLOUDY    57  54  89 SE9       29.96S
ZANESVILLE     CLOUDY    59  54  83 SE9       29.97F
NEW PHILLY     LGT RAIN  56  53  90 SE5       29.99F
$$



USA.gov is the U.S. government's official web portal to all federal, state and local government web resources and services.